Weather History for Sitka, AK

Change the Weather History Date:

Thursday, February 27, 2014

  Actual Average Record
Temperature  
Mean Temperature 38 °F -  
Max Temperature 43 °F 43 °F 61 °F (1968)
Min Temperature 33 °F 32 °F 11 °F (1972)
Degree Days  
Heating Degree Days 27    
Moisture  
Dew Point 34 °F    
Average Humidity 82    
Maximum Humidity 92    
Minimum Humidity 71    
Precipitation  
Precipitation 0.00 in - - ()
Sea Level Pressure  
Sea Level Pressure 29.84 in    
Wind  
Wind Speed 3 mph (NNE)    
Max Wind Speed 7 mph    
Max Gust Speed -    
Visibility 10 miles    
Events      
Averages and records for this station are not official NWS values.
T = Trace of Precipitation, MM = Missing Value Source: NWS Daily Summary

Daily Weather History Graph

Daily Weather History Graph

Search for Another Location

Airport:

Trip Planner

Search our weather history database for the weather conditions in past years. The results will help you decide how hot, cold, wet, or windy it might be!

Date:

Astronomy

Feb. 27, 2014 Rise Set
Actual Time 6:59 AM AKST 5:30 PM AKST
Civil Twilight 6:20 AM AKST 6:08 PM AKST
Nautical Twilight 5:36 AM AKST 6:52 PM AKST
Astronomical Twilight 4:52 AM AKST 7:37 PM AKST
Moon 5:51 AM AKST (2/27) 3:55 PM AKST (2/27)
Length of Visible Light 11h 48m
Length of Day
10h 30m
Waning Crescent, 3% of the Moon is Illuminated
Feb 27
Waning Crescent
Feb 28
New
Mar 8
First Quarter
Mar 16
Full
Mar 23
Last Quarter

Hourly Weather History & Observations

Time (AKST) Temp. Windchill Dew Point Humidity Pressure Visibility Wind Dir Wind Speed Gust Speed Precip Events Conditions
12:53 AM 39.9 °F 37.8 °F 36.0 °F 86% 29.75 in 10.0 mi WSW 3.5 mph - N/A   Clear
1:53 AM 36.0 °F 32.1 °F 33.1 °F 89% 29.75 in 10.0 mi North 4.6 mph - N/A   Clear
2:53 AM 34.0 °F 31.0 °F 30.9 °F 89% 29.76 in 10.0 mi North 3.5 mph - N/A   Clear
3:53 AM 33.1 °F - 30.0 °F 89% 29.75 in 10.0 mi Calm Calm - N/A   Clear
4:53 AM 33.1 °F 30.0 °F 30.9 °F 92% 29.76 in 10.0 mi NNW 3.5 mph - N/A   Clear
5:53 AM 35.1 °F - 30.9 °F 85% 29.77 in 10.0 mi Calm Calm - N/A   Clear
6:53 AM 35.1 °F 32.2 °F 30.0 °F 82% 29.78 in 10.0 mi NNW 3.5 mph - N/A   Clear
7:53 AM 36.0 °F 32.1 °F 32.0 °F 86% 29.79 in 10.0 mi NNW 4.6 mph - N/A   Mostly Cloudy
8:53 AM 37.9 °F 32.7 °F 33.1 °F 83% 29.81 in 10.0 mi NNW 6.9 mph - N/A   Mostly Cloudy
9:53 AM 39.9 °F 37.8 °F 33.1 °F 77% 29.83 in 10.0 mi NNW 3.5 mph - N/A   Mostly Cloudy
10:53 AM 41.0 °F - 33.1 °F 73% 29.83 in 10.0 mi Calm Calm - N/A   Mostly Cloudy
11:53 AM 41.0 °F 39.0 °F 33.1 °F 73% 29.84 in 10.0 mi ESE 3.5 mph - N/A   Mostly Cloudy
12:53 PM 42.1 °F - 35.1 °F 76% 29.85 in 10.0 mi Calm Calm - N/A   Overcast
1:53 PM 43.0 °F - 34.0 °F 71% 29.86 in 10.0 mi Calm Calm - N/A   Overcast
2:53 PM 42.1 °F - 36.0 °F 79% 29.86 in 10.0 mi Calm Calm - N/A   Overcast
3:53 PM 43.0 °F - 36.0 °F 76% 29.87 in 10.0 mi Calm Calm - N/A   Overcast
4:53 PM 42.1 °F - 37.0 °F 82% 29.89 in 10.0 mi Calm Calm - N/A   Overcast
5:53 PM 41.0 °F 38.0 °F 37.0 °F 86% 29.89 in 10.0 mi East 4.6 mph - N/A   Overcast
6:53 PM 39.9 °F 36.7 °F 35.1 °F 83% 29.89 in 10.0 mi ESE 4.6 mph - N/A   Overcast
7:53 PM 39.9 °F 36.7 °F 36.0 °F 86% 29.89 in 10.0 mi ESE 4.6 mph - N/A   Overcast
8:53 PM 39.9 °F - 34.0 °F 79% 29.91 in 10.0 mi Calm Calm - N/A   Overcast
9:53 PM 39.0 °F 36.8 °F 34.0 °F 82% 29.92 in 10.0 mi ESE 3.5 mph - N/A   Mostly Cloudy
10:53 PM 39.0 °F - 33.1 °F 79% 29.93 in 10.0 mi Calm Calm - N/A   Overcast
11:53 PM 39.0 °F - 34.0 °F 82% 29.92 in 10.0 mi Calm Calm - N/A   Overcast